• In Netherlands
  • List of Countries
  • For 7 days
  • Water Temperature
  • Satellite Maps
  • Weather Map
  • Weather Widgets
  • user-avatar
    Login

    Hourly Weather Graz

    Today, 25 November, Saturday

    Time Temperature Precipitation Wind Pressure Humidity
    00:00 +7°C° 0 mm 1 mps 724 mmHg 84%
    01:00 +7°C° 0 mm 1 mps 724 mmHg 85%
    02:00 +6°C° 0 mm 1 mps 723 mmHg 86%
    03:00 +6°C° 0 mm 1 mps 723 mmHg 88%
    04:00 +6°C° 0 mm 1 mps 722 mmHg 89%
    05:00 +5°C° 0 mm 1 mps 722 mmHg 90%
    06:00 +5°C° 0 mm 1 mps 721 mmHg 91%
    07:00 +5°C° 0 mm 1 mps 721 mmHg 92%
    08:00 +5°C° 0 mm 2 mps 720 mmHg 88%
    09:00 +7°C° 0 mm 2 mps 720 mmHg 85%
    10:00 +8°C° 0 mm 2 mps 719 mmHg 82%
    11:00 +9°C° 0 mm 3 mps 719 mmHg 81%
    12:00 +10°C° 0 mm 3 mps 718 mmHg 80%
    13:00 +11°C° 0 mm 3 mps 718 mmHg 79%
    14:00 +10°C° 0 mm 3 mps 718 mmHg 82%
    15:00 +10°C° 0 mm 2 mps 718 mmHg 85%
    16:00 +9°C° 0 mm 2 mps 718 mmHg 88%
    17:00 +10°C° 0.5 mm 1 mps 718 mmHg 89%
    18:00 +10°C° 0.5 mm 1 mps 719 mmHg 91%
    19:00 +9°C° 0.5 mm 1 mps 719 mmHg 93%
    20:00 +9°C° 2.3 mm 1 mps 719 mmHg 93%
    21:00 +8°C° 2.3 mm 2 mps 720 mmHg 93%
    22:00 +7°C° 2.3 mm 2 mps 720 mmHg 93%
    23:00 +7°C° 2.5 mm 2 mps 720 mmHg 93%

    Tomorrow, 26 November, Sunday

    Time Temperature Precipitation Wind Pressure Humidity
    00:00 +7°C° 2.5 mm 1 mps 721 mmHg 94%
    01:00 +7°C° 2.5 mm 1 mps 721 mmHg 94%
    02:00 +6°C° 1.6 mm 2 mps 721 mmHg 91%
    03:00 +5°C° 1.6 mm 2 mps 722 mmHg 88%
    04:00 +5°C° 1.6 mm 2 mps 722 mmHg 86%
    05:00 +4°C° 0.3 mm 2 mps 723 mmHg 85%
    06:00 +4°C° 0.3 mm 2 mps 723 mmHg 83%
    07:00 +3°C° 0.3 mm 2 mps 724 mmHg 82%
    08:00 +3°C° 0 mm 2 mps 724 mmHg 79%
    09:00 +3°C° 0 mm 3 mps 725 mmHg 77%
    10:00 +3°C° 0 mm 3 mps 725 mmHg 74%
    11:00 +3°C° 0 mm 3 mps 725 mmHg 71%
    12:00 +3°C° 0 mm 4 mps 725 mmHg 69%
    13:00 +3°C° 0 mm 4 mps 726 mmHg 67%
    14:00 +3°C° 0 mm 3 mps 726 mmHg 69%
    15:00 +2°C° 0 mm 3 mps 726 mmHg 72%
    16:00 +3°C° 0 mm 2 mps 726 mmHg 74%
    17:00 +2°C° 0 mm 2 mps 727 mmHg 76%
    18:00 +1°C° 0 mm 2 mps 727 mmHg 77%
    19:00 +1°C° 0 mm 2 mps 728 mmHg 79%
    20:00 -1°C° 0 mm 2 mps 728 mmHg 80%
    21:00 -1°C° 0 mm 2 mps 728 mmHg 81%
    22:00 -2°C° 0 mm 2 mps 729 mmHg 82%
    23:00 -2°C° 0 mm 2 mps 729 mmHg 82%

    Day after tomorrow, 27 November, Monday

    Time Temperature Precipitation Wind Pressure Humidity
    00:00 -2°C° 0 mm 2 mps 729 mmHg 82%
    01:00 -2°C° 0 mm 2 mps 729 mmHg 83%
    02:00 -2°C° 0 mm 2 mps 729 mmHg 83%
    03:00 -2°C° 0 mm 2 mps 729 mmHg 83%
    04:00 -2°C° 0 mm 2 mps 729 mmHg 82%
    05:00 -2°C° 0 mm 2 mps 730 mmHg 82%
    06:00 -2°C° 0 mm 2 mps 730 mmHg 82%
    07:00 -2°C° 0 mm 2 mps 730 mmHg 82%
    08:00 -1°C° 0 mm 2 mps 730 mmHg 76%
    09:00 +1°C° 0 mm 2 mps 731 mmHg 71%
    10:00 +2°C° 0 mm 2 mps 731 mmHg 65%
    11:00 +3°C° 0 mm 2 mps 730 mmHg 62%
    12:00 +4°C° 0 mm 2 mps 730 mmHg 59%
    13:00 +4°C° 0 mm 2 mps 730 mmHg 57%
    14:00 +3°C° 0 mm 2 mps 729 mmHg 61%
    15:00 +3°C° 0 mm 1 mps 729 mmHg 65%
    16:00 +2°C° 0 mm 1 mps 729 mmHg 69%
    17:00 +2°C° 0 mm 1 mps 729 mmHg 73%
    18:00 +1°C° 0 mm 1 mps 729 mmHg 76%
    19:00 0°C° 0 mm 1 mps 729 mmHg 80%
    20:00 0°C° 0 mm 1 mps 729 mmHg 80%
    21:00 -1°C° 0 mm 1 mps 729 mmHg 81%
    22:00 -1°C° 0 mm 1 mps 729 mmHg 81%
    23:00 -1°C° 0 mm 1 mps 729 mmHg 80%

    28 November, Tuesday

    Time Temperature Precipitation Wind Pressure Humidity
    00:00 -1°C° 0 mm 1 mps 728 mmHg 80%
    01:00 -1°C° 0 mm 1 mps 728 mmHg 79%
    02:00 -1°C° 0 mm 1 mps 727 mmHg 78%
    03:00 -1°C° 0 mm 1 mps 727 mmHg 76%
    04:00 -1°C° 0 mm 1 mps 726 mmHg 75%
    05:00 -1°C° 0 mm 1 mps 726 mmHg 73%
    06:00 -1°C° 0 mm 1 mps 726 mmHg 71%
    07:00 -1°C° 0 mm 1 mps 726 mmHg 70%
    08:00 0°C° 0 mm 1 mps 725 mmHg 64%
    09:00 +2°C° 0 mm 1 mps 725 mmHg 58%
    10:00 +4°C° 0 mm 1 mps 725 mmHg 52%
    11:00 +5°C° 0 mm 1 mps 724 mmHg 51%
    12:00 +6°C° 0 mm 1 mps 723 mmHg 49%
    13:00 +6°C° 0 mm 1 mps 722 mmHg 48%
    14:00 +5°C° 0 mm 1 mps 722 mmHg 54%
    15:00 +4°C° 0 mm 1 mps 721 mmHg 61%
    16:00 +3°C° 0 mm 1 mps 721 mmHg 67%
    17:00 +2°C° 0 mm 1 mps 720 mmHg 70%
    18:00 +1°C° 0 mm 1 mps 720 mmHg 72%
    19:00 0°C° 0 mm 1 mps 720 mmHg 75%
    20:00 0°C° 0 mm 1 mps 719 mmHg 76%
    21:00 0°C° 0 mm 1 mps 719 mmHg 76%
    22:00 0°C° 0 mm 1 mps 719 mmHg 77%
    23:00 0°C° 0 mm 1 mps 718 mmHg 78%

    29 November, Wednesday

    Time Temperature Precipitation Wind Pressure Humidity
    00:00 0°C° 0 mm 1 mps 718 mmHg 78%
    01:00 0°C° 0 mm 1 mps 718 mmHg 78%
    02:00 0°C° 0 mm 1 mps 717 mmHg 77%
    03:00 0°C° 0 mm 1 mps 717 mmHg 76%
    04:00 0°C° 0 mm 1 mps 717 mmHg 75%
    05:00 0°C° 0 mm 1 mps 717 mmHg 74%
    06:00 0°C° 0 mm 1 mps 717 mmHg 73%
    07:00 0°C° 0 mm 1 mps 717 mmHg 71%
    08:00 +2°C° 0 mm 1 mps 717 mmHg 68%
    09:00 +3°C° 0 mm 1 mps 717 mmHg 65%
    10:00 +4°C° 0 mm 1 mps 717 mmHg 62%
    11:00 +5°C° 0.1 mm 1 mps 717 mmHg 63%
    12:00 +6°C° 0.1 mm 1 mps 716 mmHg 64%
    13:00 +6°C° 0.1 mm 1 mps 716 mmHg 65%
    14:00 +6°C° 0.2 mm 1 mps 716 mmHg 72%
    15:00 +5°C° 0.2 mm 1 mps 716 mmHg 79%
    16:00 +4°C° 0.2 mm 1 mps 716 mmHg 87%
    17:00 +4°C° 0.2 mm 1 mps 716 mmHg 88%
    18:00 +4°C° 0.2 mm 1 mps 716 mmHg 90%
    19:00 +4°C° 0.2 mm 1 mps 716 mmHg 91%
    20:00 +4°C° 0.4 mm 1 mps 715 mmHg 92%
    21:00 +4°C° 0.4 mm 1 mps 715 mmHg 94%
    22:00 +4°C° 0.4 mm 1 mps 715 mmHg 95%
    23:00 +4°C° 0.9 mm 1 mps 714 mmHg 96%

    30 November, Thursday

    Time Temperature Precipitation Wind Pressure Humidity
    00:00 +4°C° 0.9 mm 1 mps 713 mmHg 96%
    01:00 +4°C° 0.9 mm 1 mps 713 mmHg 97%
    02:00 +4°C° 2.2 mm 1 mps 712 mmHg 97%
    03:00 +4°C° 2.2 mm 1 mps 711 mmHg 97%
    04:00 +4°C° 2.2 mm 1 mps 711 mmHg 97%
    05:00 +3°C° 1.9 mm 2 mps 711 mmHg 96%
    06:00 +3°C° 1.9 mm 2 mps 711 mmHg 95%
    07:00 +2°C° 1.9 mm 2 mps 711 mmHg 94%
    08:00 +3°C° 0.4 mm 2 mps 711 mmHg 93%
    09:00 +3°C° 0.4 mm 2 mps 712 mmHg 91%
    10:00 +3°C° 0.4 mm 2 mps 712 mmHg 89%
    11:00 +3°C° 0.1 mm 2 mps 713 mmHg 87%
    12:00 +4°C° 0.1 mm 2 mps 713 mmHg 84%
    13:00 +5°C° 0.1 mm 1 mps 713 mmHg 82%
    14:00 +5°C° 0 mm 1 mps 714 mmHg 83%
    15:00 +4°C° 0 mm 1 mps 714 mmHg 85%
    16:00 +4°C° 0 mm 1 mps 715 mmHg 87%
    17:00 +3°C° 0 mm 1 mps 715 mmHg 88%
    18:00 +3°C° 0 mm 1 mps 715 mmHg 89%
    19:00 +2°C° 0 mm 1 mps 716 mmHg 90%
    20:00 +2°C° 0.1 mm 1 mps 716 mmHg 90%
    21:00 +2°C° 0.1 mm 1 mps 716 mmHg 90%
    22:00 +1°C° 0.1 mm 1 mps 717 mmHg 90%
    23:00 +1°C° 0.1 mm 1 mps 717 mmHg 90%
    Show more